Hourly Weather Omaheke

Today, 15 April, Thursday

Time Temperature Precipitation Wind Pressure Humidity
00:00 +16°C° 0 mm 3 mps 640 mmHg 41%
01:00 +16°C° 0 mm 3 mps 640 mmHg 46%
02:00 +16°C° 0 mm 2 mps 639 mmHg 46%
03:00 +16°C° 0 mm 2 mps 639 mmHg 46%
04:00 +16°C° 0 mm 2 mps 639 mmHg 46%
05:00 +16°C° 0 mm 3 mps 639 mmHg 45%
06:00 +16°C° 0 mm 3 mps 640 mmHg 44%
07:00 +16°C° 0 mm 3 mps 640 mmHg 44%
08:00 +19°C° 0 mm 5 mps 641 mmHg 38%
09:00 +22°C° 0 mm 7 mps 642 mmHg 32%
10:00 +26°C° 0 mm 8 mps 642 mmHg 26%
11:00 +27°C° 0 mm 8 mps 642 mmHg 24%
12:00 +27°C° 0 mm 9 mps 641 mmHg 21%
13:00 +28°C° 0 mm 9 mps 641 mmHg 18%
14:00 +28°C° 0 mm 8 mps 641 mmHg 19%
15:00 +28°C° 0 mm 8 mps 640 mmHg 19%
16:00 +27°C° 0 mm 7 mps 640 mmHg 19%
17:00 +24°C° 0 mm 6 mps 640 mmHg 23%
18:00 +22°C° 0 mm 4 mps 640 mmHg 26%
19:00 +20°C° 0 mm 3 mps 640 mmHg 29%
20:00 +20°C° 0 mm 2 mps 640 mmHg 30%
21:00 +19°C° 0 mm 2 mps 640 mmHg 32%
22:00 +19°C° 0 mm 1 mps 640 mmHg 33%
23:00 +19°C° 0 mm 1 mps 639 mmHg 34%

Tomorrow, 16 April, Friday

Time Temperature Precipitation Wind Pressure Humidity
00:00 +19°C° 0 mm 1 mps 639 mmHg 35%
01:00 +18°C° 0 mm 1 mps 638 mmHg 37%
02:00 +18°C° 0 mm 1 mps 638 mmHg 36%
03:00 +17°C° 0 mm 2 mps 638 mmHg 35%
04:00 +17°C° 0 mm 3 mps 639 mmHg 35%
05:00 +18°C° 0 mm 3 mps 639 mmHg 35%
06:00 +18°C° 0 mm 3 mps 640 mmHg 35%
07:00 +19°C° 0 mm 3 mps 640 mmHg 36%
08:00 +21°C° 0 mm 4 mps 641 mmHg 32%
09:00 +25°C° 0 mm 5 mps 641 mmHg 28%
10:00 +27°C° 0 mm 6 mps 642 mmHg 25%
11:00 +28°C° 0 mm 6 mps 642 mmHg 23%
12:00 +28°C° 0 mm 6 mps 641 mmHg 22%
13:00 +29°C° 0 mm 6 mps 641 mmHg 20%
14:00 +28°C° 0 mm 6 mps 640 mmHg 22%
15:00 +28°C° 0 mm 6 mps 640 mmHg 23%
16:00 +27°C° 0 mm 7 mps 640 mmHg 25%
17:00 +26°C° 0 mm 5 mps 639 mmHg 27%
18:00 +23°C° 0 mm 4 mps 639 mmHg 29%
19:00 +23°C° 0 mm 2 mps 639 mmHg 31%
20:00 +21°C° 0 mm 2 mps 639 mmHg 34%
21:00 +20°C° 0 mm 2 mps 639 mmHg 36%
22:00 +19°C° 0 mm 2 mps 639 mmHg 38%
23:00 +19°C° 0 mm 2 mps 639 mmHg 39%

Day after tomorrow, 17 April, Saturday

Time Temperature Precipitation Wind Pressure Humidity
00:00 +19°C° 0 mm 2 mps 639 mmHg 41%
01:00 +18°C° 0 mm 3 mps 639 mmHg 42%
02:00 +18°C° 0 mm 3 mps 639 mmHg 44%
03:00 +18°C° 0 mm 3 mps 639 mmHg 45%
04:00 +17°C° 0 mm 3 mps 638 mmHg 47%
05:00 +17°C° 0 mm 3 mps 639 mmHg 48%
06:00 +17°C° 0 mm 3 mps 640 mmHg 50%
07:00 +17°C° 0 mm 3 mps 640 mmHg 51%
08:00 +20°C° 0 mm 5 mps 641 mmHg 45%
09:00 +22°C° 0 mm 6 mps 641 mmHg 38%
10:00 +24°C° 0 mm 8 mps 642 mmHg 31%
11:00 +26°C° 0 mm 8 mps 641 mmHg 28%
12:00 +27°C° 0 mm 8 mps 641 mmHg 26%
13:00 +28°C° 0 mm 7 mps 641 mmHg 23%
14:00 +28°C° 0 mm 7 mps 641 mmHg 23%
15:00 +27°C° 0 mm 7 mps 640 mmHg 22%
16:00 +27°C° 0 mm 7 mps 640 mmHg 21%
17:00 +24°C° 0 mm 6 mps 640 mmHg 25%
18:00 +22°C° 0 mm 5 mps 640 mmHg 29%
19:00 +21°C° 0 mm 4 mps 640 mmHg 32%
20:00 +20°C° 0 mm 4 mps 640 mmHg 35%
21:00 +19°C° 0 mm 4 mps 640 mmHg 38%
22:00 +19°C° 0 mm 4 mps 641 mmHg 41%
23:00 +19°C° 0.1 mm 3 mps 641 mmHg 45%

18 April, Sunday

Time Temperature Precipitation Wind Pressure Humidity
00:00 +18°C° 0.1 mm 3 mps 641 mmHg 49%
01:00 +18°C° 0.1 mm 2 mps 641 mmHg 54%
02:00 +17°C° 0.3 mm 3 mps 640 mmHg 58%
03:00 +17°C° 0.3 mm 3 mps 640 mmHg 63%
04:00 +16°C° 0.3 mm 3 mps 640 mmHg 68%
05:00 +16°C° 0 mm 3 mps 640 mmHg 67%
06:00 +16°C° 0 mm 3 mps 641 mmHg 66%
07:00 +17°C° 0 mm 4 mps 641 mmHg 65%
08:00 +19°C° 0 mm 5 mps 642 mmHg 57%
09:00 +21°C° 0 mm 6 mps 643 mmHg 48%
10:00 +23°C° 0 mm 7 mps 643 mmHg 40%
11:00 +24°C° 0 mm 6 mps 643 mmHg 37%
12:00 +26°C° 0 mm 6 mps 642 mmHg 35%
13:00 +26°C° 0 mm 5 mps 642 mmHg 32%
14:00 +26°C° 0 mm 5 mps 641 mmHg 34%
15:00 +25°C° 0 mm 4 mps 641 mmHg 37%
16:00 +23°C° 0 mm 4 mps 641 mmHg 40%
17:00 +21°C° 0.6 mm 4 mps 641 mmHg 50%
18:00 +19°C° 0.6 mm 4 mps 641 mmHg 60%
19:00 +17°C° 0.6 mm 4 mps 641 mmHg 71%
20:00 +17°C° 0 mm 3 mps 641 mmHg 69%
21:00 +17°C° 0 mm 3 mps 641 mmHg 68%
22:00 +17°C° 0 mm 2 mps 642 mmHg 67%
23:00 +17°C° 0 mm 2 mps 641 mmHg 65%

19 April, Monday

Time Temperature Precipitation Wind Pressure Humidity
00:00 +17°C° 0 mm 2 mps 641 mmHg 64%
01:00 +17°C° 0 mm 2 mps 641 mmHg 63%
02:00 +16°C° 0 mm 2 mps 640 mmHg 63%
03:00 +16°C° 0 mm 3 mps 640 mmHg 63%
04:00 +16°C° 0 mm 3 mps 640 mmHg 63%
05:00 +16°C° 0 mm 3 mps 640 mmHg 61%
06:00 +16°C° 0 mm 3 mps 641 mmHg 59%
07:00 +16°C° 0 mm 3 mps 641 mmHg 58%
08:00 +19°C° 0 mm 4 mps 642 mmHg 49%
09:00 +21°C° 0 mm 5 mps 642 mmHg 40%
10:00 +24°C° 0 mm 6 mps 643 mmHg 31%
11:00 +25°C° 0 mm 5 mps 643 mmHg 28%
12:00 +26°C° 0 mm 5 mps 642 mmHg 25%
13:00 +27°C° 0 mm 5 mps 642 mmHg 23%
14:00 +27°C° 0 mm 5 mps 641 mmHg 23%
15:00 +26°C° 0 mm 5 mps 641 mmHg 23%
16:00 +26°C° 0 mm 5 mps 641 mmHg 23%
17:00 +23°C° 0 mm 4 mps 641 mmHg 26%
18:00 +22°C° 0 mm 4 mps 641 mmHg 30%
19:00 +20°C° 0 mm 4 mps 641 mmHg 33%
20:00 +19°C° 0 mm 4 mps 641 mmHg 33%
21:00 +18°C° 0 mm 4 mps 641 mmHg 34%
22:00 +18°C° 0 mm 4 mps 641 mmHg 34%
23:00 +17°C° 0 mm 3 mps 640 mmHg 35%

20 April, Tuesday

Time Temperature Precipitation Wind Pressure Humidity
00:00 +17°C° 0 mm 3 mps 640 mmHg 36%
01:00 +16°C° 0 mm 3 mps 640 mmHg 37%
02:00 +16°C° 0 mm 2 mps 639 mmHg 37%
03:00 +15°C° 0 mm 2 mps 639 mmHg 38%
04:00 +15°C° 0 mm 1 mps 638 mmHg 38%
05:00 +16°C° 0 mm 2 mps 639 mmHg 37%
06:00 +16°C° 0 mm 2 mps 640 mmHg 37%
07:00 +17°C° 0 mm 2 mps 640 mmHg 36%
08:00 +20°C° 0 mm 3 mps 641 mmHg 31%
09:00 +22°C° 0 mm 4 mps 642 mmHg 27%
10:00 +25°C° 0 mm 5 mps 642 mmHg 23%
11:00 +26°C° 0 mm 5 mps 642 mmHg 22%
12:00 +26°C° 0 mm 6 mps 641 mmHg 21%
13:00 +27°C° 0 mm 6 mps 641 mmHg 20%
14:00 +27°C° 0 mm 6 mps 641 mmHg 20%
15:00 +27°C° 0 mm 6 mps 640 mmHg 20%
16:00 +26°C° 0 mm 6 mps 640 mmHg 21%
17:00 +23°C° 0 mm 5 mps 640 mmHg 24%
18:00 +21°C° 0 mm 4 mps 640 mmHg 26%
19:00 +19°C° 0 mm 4 mps 640 mmHg 29%
20:00 +19°C° 0 mm 3 mps 640 mmHg 30%
21:00 +18°C° 0 mm 3 mps 640 mmHg 31%
22:00 +17°C° 0 mm 3 mps 640 mmHg 31%
23:00 +17°C° 0 mm 3 mps 640 mmHg 33%
Show more

We Need Your Consent

Meteoprog and our Service Providers may store and access personal data such as cookies, device identifiers or other similar technologies on your device and process such data to personalise content and ads, as well as provide social media features and to analyse the traffic.

  • Store and/or access information on your device

    Cookies, device identifiers or other information can be stored or accessed on your device for the purposes indicated above.

  • Personalised ads and content, ad and content measurement, audience insights, and products development

    Ads and content can be personalised based on a profile. More data can be added to better personalise ads and content. Ad and content performance can be measured. Insights about the audience who saw the ads and content can be derived. Such data can be used to develop or improve user’s experience, systems and software.

By clicking ‘I Agree’ you will allow the use of indicated cookies, device identifiers, web beacons or other similar technologies. Your settings can be changed in the browser on your device.

For certain purposes, legitimate interests may be relied on, rather than consent. You can read more about this in our Privacy and Cookie Policy.